Lid_Strength_Index
8 8 8 8 9 8 9 9 11 10 9 7 6 6 5 4 4 4 4 3 3 3 3 3 3 2 2 2 1 1 1 1 1 1 2 3 3 4 4 4 4 7 7 8
10 8 8 9 8 8 8 8 8 8 8 5 5 4 5 4 4 4 4 4 4 3 3 3 3 2 2 2 2 1 1 2 2 2 2 2 3 4 4 6 7 8 8 8
13 9 9 12 9 8 8 7 8 10 7 5 6 5 5 4 4 4 4 4 4 3 3 3 2 2 2 3 2 2 3 3 3 3 3 3 5 6 7 7 6 8 7 7
13 13 17 9 6 6 7 7 6 6 6 5 5 4 4 4 4 4 4 4 3 3 3 2 2 2 2 2 2 2 3 3 3 3 4 4 5 6 6 6 7 8 8 7
15 14 11 9 7 7 8 8 6 6 6 5 4 5 5 4 3 4 3 3 3 2 3 3 3 3 3 3 3 4 4 4 4 4 4 5 5 5 6 6 6 6 6 7
13 15 17 9 6 5 5 11 5 5 5 5 5 9 6 4 3 3 3 3 3 3 3 3 3 3 4 4 4 4 4 4 4 4 4 5 6 6 6 6 7 7 7 7
14 14 11 7 5 5 12 10 5 5 5 5 6 5 4 4 4 3 3 4 3 3 4 4 3 3 4 4 5 4 4 4 4 5 5 6 6 6 6 6 7 7 8 7
13 15 17 6 6 9 6 4 4 4 4 4 4 4 4 4 4 4 4 4 4 4 4 4 3 3 4 5 4 4 5 5 6 6 7 7 7 7 8 8 8 8 8 8
10 10 6 5 5 4 4 4 4 4 4 4 4 4 4 4 4 4 4 4 4 4 5 4 4 4 5 5 5 6 6 7 8 8 8 8 8 8 8 9 9 10 10 10
9 7 6 5 4 4 4 4 4 3 3 3 4 4 4 4 4 5 4 4 4 5 5 5 5 5 5 6 6 7 8 8 8 9 9 9 9 10 10 10 11 11 12 12
8 6 6 5 5 4 4 3 3 3 3 3 4 4 4 4 4 4 4 4 5 5 6 7 6 7 7 7 7 8 9 10 10 10 11 11 11 12 12 13 13 13 13 13
11 6 7 6 4 4 4 4 4 4 4 3 3 4 3 4 4 4 5 5 6 6 7 7 8 8 8 8 8 10 11 11 11 11 11 12 12 13 15 14 15 15 15 15
6 5 5 4 4 3 4 3 3 3 3 4 3 3 3 4 4 6 5 6 6 7 8 8 9 10 9 9 10 11 12 12 13 12 12 13 13 13 13 14 15 15 16 16
4 5 6 5 5 5 4 3 4 3 3 3 3 4 4 5 5 6 7 6 7 8 9 10 11 13 12 12 12 13 14 15 13 13 13 13 14 14 13 14 14 14 15 16
5 5 5 6 6 6 5 6 6 5 5 5 4 5 6 7 8 8 8 8 9 11 12 13 15 15 14 13 13 14 14 14 14 14 15 15 15 14 14 14 15 14 14 14
6 6 6 7 6 7 7 7 7 6 6 6 7 7 7 8 8 10 11 12 14 15 16 16 16 16 15 14 15 16 17 17 16 15 15 15 15 15 15 15 15 15 14 14
7 6 6 7 7 8 8 7 7 8 8 8 8 8 9 12 14 16 17 17 17 17 17 17 17 17 16 16 15 15 15 17 18 16 16 16 16 16 16 16 16 15 14 14
6 6 7 6 7 8 9 8 9 9 9 11 13 14 15 17 18 18 18 18 19 19 18 18 17 17 18 17 17 17 17 17 17 17 17 16 17 16 16 16 15 15 14 13
10 10 10 10 9 11 12 14 14 14 14 14 15 17 17 18 19 19 19 19 20 20 20 19 18 18 19 19 18 18 18 18 18 17 17 19 17 16 16 16 15 15 14 13
14 14 15 15 14 14 15 15 15 16 15 16 17 18 19 18 18 18 18 18 18 19 18 19 19 19 20 20 19 18 18 18 18 18 17 18 17 17 16 16 15 14 14 13
15 16 16 16 16 16 15 15 15 16 16 16 17 18 18 18 18 18 19 20 19 19 19 19 19 19 19 19 19 18 18 18 18 18 18 17 16 15 15 14 14 14 14 14
16 16 16 17 17 17 16 16 17 17 18 18 18 18 18 19 18 18 17 19 19 18 18 18 19 20 20 20 18 17 18 18 18 17 17 16 16 15 15 15 15 15 15 14
16 16 16 17 17 17 16 16 16 16 17 17 17 17 17 17 17 18 19 18 18 18 18 18 20 21 21 18 17 18 18 18 17 16 16 15 15 15 15 15 15 15 15 15
16 16 16 16 16 17 18 17 17 17 17 17 17 16 16 17 17 17 17 18 18 17 17 18 19 21 21 17 18 17 17 16 16 15 15 16 15 15 15 15 16 15 15 16
17 17 17 16 17 17 16 16 16 16 16 16 16 16 16 16 16 16 16 17 18 17 17 20 20 20 17 17 16 16 16 16 15 16 16 16 16 16 16 15 16 15 16 16
17 17 17 17 17 16 16 16 17 16 16 16 16 16 16 15 15 16 16 17 17 17 17 16 16 16 16 15 16 16 16 16 16 16 16 17 16 16 16 16 15 15 15 15
18 17 17 17 17 17 17 17 17 18 17 16 16 15 15 15 16 16 16 15 15 15 15 15 15 16 16 16 16 16 16 16 16 17 17 17 17 17 16 16 16 16 16 16